Regional Weather Roundup
Issued by NWS

Home | Current Version | Previous Version | Text Only | Print | Product List | Glossary Off
Versions: 1 2 3 4 5 6 7 8 9 10 11 12 13 14 15 16 17 18 19 20 21 22 23 24 25 26 27 28 29 30 31 32 33 34 35 36 37 38 39 40 41 42 43 44 45 46 47 48 49 50

000
ASUS44 KMEG 161610
RWRTN
TENNESSEE HOURLY STATE WEATHER ROUNDUP
NATIONAL WEATHER SERVICE MEMPHIS TN
1000 AM CST TUE JAN 16 2018

TNZ002-004-019-021-049-052-054-088>092-161700-
WEST TENNESSEE

CITY           SKY/WX    TMP DP  RH WIND       PRES   REMARKS
MEMPHIS INTL   PTSUNNY   13   3  64 N10       30.70R WCI   0
NWS MEMPHIS      N/A     13 N/A N/A MISG        N/A
JACKSON        CLOUDY    13   5  70 NW14      30.67R WCI  -2
DYERSBURG      FAIR      13   0  56 NW8       30.72R WCI   2
SOMERVILLE     SUNNY     12   3  67 NW10G17   30.67R WCI  -1
COVINGTON      SUNNY      9  -2  61 N16       30.72R WCI  -9
UNION CITY     SUNNY      9   0  66 N15       30.70R WCI  -8
BOLIVAR        CLOUDY    16   7  67 VRB7G13   30.65S WCI   6
PARIS          SUNNY      9   1  72 VRB7      30.64S WCI  -3
HUNTINGDON     SUNNY     10   1  67 NW6       30.65R WCI   1
LEXINGTON      PTSUNNY   14   7  73 NW13      30.64S WCI   0
SELMER         MOSUNNY   14   9  79 N9        30.62S HAZE    WCI   2
SAVANNAH       SUNNY     16  10  79 N10       30.63R HAZE    WCI   3
$$

TNZ008-025-027-028-033-062-065-066-161700-
NORTH MIDDLE TENNESSEE

CITY           SKY/WX    TMP DP  RH WIND       PRES   REMARKS
NASHVILLE      SNOW      14   9  80 NW9       30.61R VSB 1/2 WCI   2
PORTLAND       PTSUNNY   10   5  79 NW8       30.59R HAZE    WCI  -1
CLARKSVILLE    FAIR      11   1  64 N9        30.63S WCI  -2
SMYRNA         LGT SNOW  14   9  79 N10       30.62R WCI   1
COOKEVILLE     MOSUNNY   18  12  79 N7G15     30.51R HAZE    WCI   8
GALLATIN       PTSUNNY   12   5  73 NW14      30.64R HAZE    WCI  -3
CROSSVILLE     LGT SNOW  19  14  81 N7        30.42R WCI  10
$$

TNZ061-075-076-078-094-096-097-161700-
SOUTH MIDDLE TENNESSEE

CITY           SKY/WX    TMP DP  RH WIND       PRES   REMARKS
FAYETTEVILLE   PTSUNNY   19  18  93 N8        30.52R FOG     WCI   9
TULLAHOMA      FOG       18  14  86 NW10      30.52R VSB 1   WCI   6
WINCHESTER     CLOUDY    19  18  93 N5        30.51R WCI  13
MCMINNVILLE    FOG       18  14  86 N10       30.52R VSB 1/2 WCI   6
COLUMBIA       SUNNY     14  12  92 VRB6      30.58R FOG     WCI   5
SHELBYVILLE    PTSUNNY   16  12  86 N13       30.56R FOG     WCI   2
$$

TNZ017-018-042-046-047-161700-
NORTHEAST TENNESSEE

CITY           SKY/WX    TMP DP  RH WIND       PRES   REMARKS
TRI CITIES     PTSUNNY   35  28  75 CALM      30.39F
ELIZABETHTON   FAIR      36  27  69 CALM      30.39F
$$

TNZ012-013-036-069-073-074-161700-
CENTRAL EAST TENNESSEE

CITY           SKY/WX    TMP DP  RH WIND       PRES   REMARKS
KNOXVILLE      CLOUDY    36  28  73 CALM      30.40F
OAK RIDGE      CLOUDY    34  28  79 CALM      30.43R
DOWNTOWN KNOXV PTSUNNY   37  28  70 CALM      30.41F
GATLINBURG     CLOUDY    36  25  64 CALM      30.39F
MORRISTOWN     PTSUNNY   37  27  65 CALM      30.38F
JACKSBORO      CLOUDY    28  21  74 CALM      30.46R
$$

TNZ083-085-099-161700-
SOUTHEAST TENNESSEE

CITY           SKY/WX    TMP DP  RH WIND       PRES   REMARKS
CHATTANOOGA    PTSUNNY   37  28  70 N6        30.45R WCI  32
DAYTON         CLOUDY    34  28  80 W6        30.44S WCI  29
$$

SKY/WX REPORTED AS FAIR MEANS FEW OR NO CLOUDS BELOW
12 THOUSAND FEET.





USA.gov is the U.S. government's official web portal to all federal, state and local government web resources and services.